"Time","Temp","Dewpoint","Humidity","Pressure","Direction","Speed","Gust","Precip","PrecipRate","Solar"
"00:04:58","43.6","42.5","96","29.59","109","4.1","8.1","0.01","0.05","0"
"00:09:57","43.5","42.4","96","29.59","101","3.3","7.2","0.02","0.06","0"
"00:14:59","43.4","42.3","96","29.59","108","3.3","7.2","0.02","0.06","0"
"00:19:56","43.3","42.2","96","29.58","110","3.9","8.4","0.02","0.06","0"
"00:24:56","43.2","42.1","96","29.58","94","3.2","6","0.02","0.06","0"
"00:29:57","43.1","42","96","29.58","89","3.6","9.6","0.02","0.05","0"
"00:34:58","43","41.9","96","29.56","90","4.7","10.8","0.02","0.05","0"
"00:39:59","42.9","41.8","96","29.56","99","4.4","8.4","0.02","0.05","0"
"00:44:56","42.8","41.7","96","29.56","105","3","5.8","0.02","0.05","0"
"00:49:57","42.8","41.7","96","29.54","94","1.6","3.6","0.03","0.05","0"
"00:54:58","42.8","41.7","96","29.54","94","1.3","2.4","0.03","0.05","0"
"00:59:58","42.8","41.7","96","29.54","89","1.6","6","0.04","0.04","0"
"01:04:59","42.7","41.6","96","29.53","80","2.5","6","0.04","0.04","0"
"01:09:58","42.6","41.5","96","29.53","74","2.1","5.8","0.04","0.03","0"
"01:14:59","42.5","41.4","96","29.53","53","1.6","4.8","0.04","0.02","0"
"01:19:56","42.4","41.3","96","29.52","67","2.3","6","0.04","0.02","0"
"01:24:57","42.1","40.8","95.2","29.52","69","3","5.8","0.04","0.02","0"
"01:29:58","41.9","40.8","95.6","29.52","79","2.4","9.6","0.04","0.02","0"
"01:34:59","41.8","40.7","96","29.51","86","3.4","9.2","0.04","0.02","0"
"01:39:56","41.7","40.6","95.7","29.51","86","3.6","6","0.05","0.03","0"
"01:44:56","41.7","40.4","95","29.51","77","3.5","9.6","0.05","0.03","0"
"01:49:57","41.6","40.3","95.2","29.49","73","3.4","9.2","0.05","0.03","0"
"01:54:58","41.6","40.5","96","29.49","46","1.8","4.8","0.05","0.02","0"
"01:59:59","41.6","40.5","95.9","29.49","55","2","6","0.05","0.02","0"
"02:04:56","41.6","40.5","96","29.48","78","1.8","4.8","0.05","0.01","0"
"02:09:56","41.6","40.5","96","29.48","43","1.3","4.6","0.06","0.02","0"
"02:14:57","41.5","40.4","96","29.48","45","0.6","3.6","0.06","0.02","0"
"02:19:58","41.6","40.5","96","29.48","41","0.7","3.6","0.07","0.03","0"
"02:24:58","41.6","40.5","96","29.48","342","1.1","3.6","0.09","0.05","0"
"02:29:59","41.5","40.4","96","29.48","339","1.5","7.2","0.11","0.06","0"
"02:34:59","41.3","40.2","96","29.46","13","2.1","7.2","0.13","0.08","0"
"02:39:56","41.1","40","96","29.46","16","1.9","6","0.14","0.09","0"
"02:44:57","41","39.9","96","29.47","94","1.7","4.8","0.15","0.10","0"
"02:49:58","41","39.9","96","29.47","95","1","3.6","0.16","0.11","0"
"02:54:58","41","39.9","96","29.47","58","0.9","4.8","0.17","0.11","0"
"02:59:59","41","39.9","96","29.48","346","1.4","4.6","0.19","0.13","0"
"03:04:57","41","39.9","96","29.48","346","0.9","3.6","0.21","0.16","0"
"03:09:56","40.9","39.8","96","29.48","332","2","6","0.24","0.17","0"
"03:14:57","40.8","39.7","96","29.48","343","2.3","6","0.26","0.20","0"
"03:19:58","40.7","39.6","96","29.45","356","2.4","6","0.27","0.21","0"
"03:24:59","40.7","39.6","96","29.45","353","2.9","7.2","0.29","0.21","0"
"03:29:56","40.7","39.6","96","29.45","35","2.1","7.2","0.30","0.20","0"
"03:34:56","40.6","39.5","96","29.42","36","2","7.2","0.30","0.19","0"
"03:39:59","40.6","39.5","96","29.42","351","1.6","7.2","0.31","0.18","0"
"03:44:56","40.6","39.5","96","29.42","333","3","7.2","0.34","0.18","0"
"03:49:58","40.6","39.5","96","29.40","340","3.4","10.8","0.35","0.20","0"
"03:54:57","40.6","39.5","96","29.40","30","2.5","8.4","0.36","0.20","0"
"03:59:56","40.6","39.5","96","29.41","5","4.4","12","0.38","0.20","0"
"04:04:57","40.5","39.4","96","29.41","346","4.9","13.2","0.39","0.19","0"
"04:09:56","40.5","39.4","96","29.41","7","3.5","16.1","0.41","0.18","0"
"04:14:59","40.5","39.4","96","29.41","28","2.7","10.8","0.44","0.18","0"
"04:19:56","40.5","39.4","96","29.41","323","2.1","6","0.45","0.18","0"
"04:24:57","40.5","39.4","96","29.41","35","2.7","7.2","0.47","0.18","0"
"04:29:58","40.4","39.4","96","29.41","61","2.4","5.8","0.48","0.18","0"
"04:34:58","40.4","39.4","96","29.41","359","3.1","9.6","0.48","0.18","0"
"04:39:59","40.4","39.4","96","29.41","349","3.3","9.2","0.48","0.18","0"
"04:44:56","40.4","39.4","96","29.44","341","3.3","8.4","0.49","0.18","0"
"04:49:57","40.4","39.4","96","29.44","348","2.8","8.1","0.49","0.15","0"
"04:54:57","40.4","39.4","96","29.44","9","2.3","7.2","0.50","0.14","0"
"04:59:58","40.4","39.4","96","29.44","16","2.3","6.9","0.50","0.14","0"
"05:04:59","40.3","39.3","96","29.43","315","1.3","5.8","0.50","0.12","0"
"05:09:59","40.3","39.3","96","29.43","77","1","3.6","0.50","0.11","0"
"05:14:56","40.3","39.3","96","29.44","338","2.4","7.2","0.50","0.09","0"
"05:19:59","40.3","39.3","96","29.44","352","1.6","7.2","0.50","0.06","0"
"05:24:56","40.3","39.3","96","29.44","345","0.8","4.8","0.51","0.05","0"
"05:29:57","40.3","39.3","96","29.44","12","2","4.8","0.51","0.04","0"
"05:34:57","40.2","39.2","96","29.43","329","2.6","13.2","0.51","0.03","0"
"05:39:58","40.2","39.2","96","29.43","0","2.7","7.2","0.51","0.03","0"
"05:44:59","40.2","39.2","96","29.43","51","2.3","6","0.51","0.03","0"
"05:49:56","40.2","39.2","96","29.41","81","1.5","7.2","0.51","0.02","0"
"05:54:57","40.2","39.2","96","29.41","349","3","8.4","0.51","0.02","0"
"05:59:58","40.2","39.2","96","29.41","334","3.3","15.6","0.51","0.01","0"
"06:04:58","40.1","39.1","96","29.41","57","4.2","16.1","0.51","0.01","0"
"06:09:59","40","39","95.8","29.41","343","2.8","6","0.51","0.01","0"
"06:14:56","39.8","38.7","95.4","29.42","347","4.5","16.1","0.51","0.01","0"
"06:19:57","39.2","37.9","95","29.42","335","7.6","21.6","0.51","0.01","0"
"06:24:57","38.3","36.8","94.4","29.42","345","8","21.9","0.51","0.01","0"
"06:29:58","37.8","36.4","94.6","29.45","350","7.5","19.6","0.51","0.00","0"
"06:34:59","37.3","35.9","94.6","29.45","349","8.7","18.4","0.52","0.01","0"
"06:39:56","36.9","35.4","94.4","29.45","342","9.8","20.7","0.52","0.01","0"
"06:44:57","36.6","35.2","94.6","29.48","337","7.8","17.3","0.52","0.01","0"
"06:49:58","36.4","34.9","94.3","29.48","332","9.3","20.4","0.53","0.02","0"
"06:54:59","36","34.4","94","29.48","340","9.4","20.7","0.54","0.02","0"
"06:59:56","35.6","34","94","29.50","341","9.8","19.2","0.55","0.03","0"
"07:04:57","35.2","33.6","94","29.50","345","8.4","19.6","0.55","0.04","0"
"07:09:56","34.8","33.3","94","29.50","346","7.6","15","0.56","0.05","0"
"07:14:57","34.5","33","94","29.53","338","5.6","16.8","0.56","0.05","0"
"07:19:59","34.1","32.6","94","29.53","334","7.5","19.2","0.57","0.06","0"
"07:24:59","33.9","32.4","94","29.53","346","6.4","17.3","0.57","0.06","0"
"07:29:57","33.7","32.3","94.5","29.55","333","7.5","20.4","0.57","0.06","0"
"07:34:57","33.6","32.2","94.5","29.55","337","6.5","16.1","0.58","0.07","0"
"07:39:59","33.4","32","94.7","29.55","344","5.8","13.2","0.58","0.06","0"
"07:44:59","33.2","31.9","95","29.57","341","6.2","13.2","0.58","0.06","0"
"07:49:56","33","31.7","95","29.57","344","6.6","15.6","0.58","0.06","0"
"07:54:56","33","31.7","95","29.57","347","5","9.6","0.58","0.05","5"
"07:59:58","33","31.7","95","29.58","340","7","15","0.58","0.04","5"
"08:04:58","33","31.7","95","29.58","342","5.5","12.7","0.58","0.03","7"
"08:09:58","33","31.7","95","29.58","344","5","13.2","0.59","0.03","9"
"08:14:58","33","31.8","95.2","29.60","335","4.4","12.7","0.59","0.03","11"
"08:19:56","33","32","96","29.60","330","3.9","12","0.59","0.03","12"
"08:24:56","33","32","95.8","29.60","334","4.4","9.6","0.59","0.02","12"
"08:29:57","33","31.9","95.8","29.61","337","5.2","13.2","0.59","0.02","16"
"08:34:58","33","32","96","29.61","333","3.8","9.6","0.60","0.03","18"
"08:39:59","33","32","96","29.61","336","4.2","10.8","0.60","0.02","18"
"08:44:59","33.1","32.1","96","29.63","334","5","10.4","0.61","0.03","25"
"08:49:56","33.1","32.1","96","29.63","333","4","8.4","0.61","0.03","32"
"08:54:56","33.1","32.1","96","29.63","343","3.3","4.8","0.62","0.04","40"
"08:59:57","33.1","32.1","96","29.63","340","2.7","8.4","0.63","0.04","44"
"09:04:57","33.3","32.3","96","29.63","322","3.7","8.4","0.63","0.05","46"
"09:09:57","33.4","32.4","96","29.63","333","3.4","7.2","0.64","0.06","56"
"09:14:57","33.4","32.4","96","29.65","338","4.8","14.4","0.65","0.06","65"
"09:19:58","33.5","32.5","96","29.65","325","4.9","15","0.66","0.07","63"
"09:24:59","33.6","32.6","96","29.65","334","4.8","9.6","0.67","0.08","47"
"09:29:56","33.6","32.6","96","29.67","324","5.1","16.1","0.67","0.08","33"
"09:34:56","33.7","32.7","96","29.67","334","5.3","14.4","0.67","0.08","30"
"09:39:57","33.8","32.8","96","29.67","320","4.4","12","0.68","0.08","44"
"09:44:58","34","33","96","29.68","349","5.4","13.2","0.69","0.08","63"
"09:49:59","34.2","33.2","96","29.68","342","4.6","13.2","0.69","0.08","77"
"09:54:59","34.4","33.4","96","29.68","322","5.1","12","0.70","0.08","81"
"09:59:56","34.7","33.7","96","29.69","326","5.6","13.2","0.70","0.08","93"
"10:04:56","34.9","33.7","95.6","29.69","330","5.1","12","0.71","0.08","137"
"10:09:56","35.1","33.8","95","29.69","317","5","13.2","0.71","0.08","220"
"10:14:56","35.5","34.2","95","29.69","322","5.3","16.1","0.71","0.07","216"
"10:19:57","35.9","34.6","95","29.68","332","4.3","10.8","0.71","0.06","211"
"10:24:58","36.5","35.2","95","29.68","319","3.6","12","0.71","0.05","209"
"10:29:59","36.9","35.6","95","29.69","315","4.8","15.6","0.72","0.05","185"
"10:34:59","37","35.4","94.1","29.69","317","6.4","15","0.72","0.05","100"
"10:39:56","37","35.1","92.9","29.69","322","5.8","14.4","0.72","0.05","60"
"10:44:58","37","35.1","92.9","29.70","338","4","8.4","0.72","0.04","60"
"10:49:58","37","34.9","92","29.70","323","5.1","14.4","0.72","0.03","63"
"10:54:58","37.1","35","92","29.70","338","6.8","18.4","0.72","0.03","104"
"10:59:59","37.4","35.1","91.1","29.72","331","9.1","22.8","0.72","0.02","163"
"11:04:56","37.9","35.5","91","29.72","328","7.4","18.4","0.72","0.02","188"
"11:09:59","38.4","35.8","90.5","29.72","328","4.8","12","0.72","0.01","169"
"11:14:58","38.6","35.9","90","29.73","323","5.6","15.6","0.72","0.01","104"
"11:19:59","38.6","35.7","89.3","29.73","311","4.8","16.1","0.72","0.01","95"
"11:24:56","38.7","36","90","29.73","325","4.9","16.1","0.72","0.01","95"
"11:29:33","38.8","35.7","88.6","29.75","326","6.4","15","0.72","0.01","178"
"11:34:58","39.2","36.1","88.8","29.75","323","4.8","8.4","0.72","0.00","216"
"11:39:59","39.7","36.4","88","29.75","336","4.9","10.8","0.72","0.00","197"
"11:44:51","40.1","36.5","87.3","29.75","324","4.7","13.2","0.72","0.00","243"
"11:49:56","40.7","37.2","87.1","29.75","324","3.7","8.1","0.72","0.00","397"
"11:54:57","41.7","37.8","86.1","29.75","320","6.4","20.7","0.72","0.00","582"
"11:59:58","43.1","38.4","83.4","29.75","311","7.4","19.6","0.72","0.00","575"
"12:04:58","43.1","37.7","81","29.75","333","9.2","19.6","0.72","0.00","571"
"12:09:58","43.3","37.9","81.2","29.75","329","7.5","16.1","0.72","0.00","615"
"12:14:58","43.6","38.1","80.8","29.76","321","5.5","16.1","0.72","0.00","615"
"12:19:59","43.7","38","80.4","29.76","338","6.8","16.8","0.72","0.00","260"
"12:24:56","43.5","37.9","80.5","29.76","345","8.5","19.6","0.72","0.00","599"
"12:29:57","43.9","37.9","79.6","29.76","315","6.3","16.1","0.72","0.00","411"
"12:34:58","43.7","37.9","80","29.75","287","4.8","13.2","0.72","0.00","202"
"12:39:59","43.8","37.7","79.3","29.75","293","5.5","15","0.72","0.00","262"
"12:44:59","44.6","38","77.6","29.75","297","8.7","23","0.72","0.00","675"
"12:49:56","45.3","38.4","76.8","29.75","293","7.8","19.6","0.72","0.00","640"
"12:54:57","45.4","36.8","71.6","29.75","323","10","19.6","0.72","0.00","619"
"12:59:58","44.9","35.3","69","29.75","320","11.1","24.2","0.72","0.00","598"
"13:04:59","45.3","35.4","68.1","29.75","325","12.5","30","0.72","0.00","610"
"13:09:58","45","35","67.6","29.75","318","10.5","21.6","0.72","0.00","610"
"13:14:59","44.8","34.6","67.3","29.76","307","10.4","27.6","0.72","0.00","601"
"13:19:56","44.8","34.9","68.1","29.76","314","9.3","18","0.72","0.00","610"
"13:24:57","45.3","35.2","67.5","29.76","285","7.9","18.4","0.72","0.00","610"
"13:29:57","46.1","36.3","68.3","29.77","328","8.5","20.4","0.72","0.00","591"
"13:34:58","45.6","33.7","63","29.77","324","12.3","25.3","0.72","0.00","564"
"13:39:59","45.8","33.4","61.8","29.77","329","12.5","24.2","0.72","0.00","547"
"13:44:56","46.1","33.1","60.2","29.78","307","9.4","24.2","0.72","0.00","519"
"13:49:57","46.8","32.2","56.7","29.78","332","11.6","30","0.72","0.00","508"
"13:54:57","46.2","31.2","55.8","29.78","336","13.7","25.3","0.72","0.00","496"
"13:59:58","46.3","30.2","53.2","29.79","306","11","23","0.72","0.00","515"
"14:04:59","46","29.5","52.3","29.79","345","13.2","23","0.72","0.00","515"
"14:09:59","45.3","29.3","53.4","29.79","316","10.1","23","0.72","0.00","503"
"14:14:59","46","30.1","53.8","29.80","294","9.1","20.7","0.72","0.00","506"
"14:19:56","47","31.6","55","29.80","310","7.4","17.3","0.72","0.00","547"
"14:24:57","47.2","30.8","52.7","29.80","329","9.1","25.2","0.72","0.00","547"
"14:29:58","47.3","29.9","50.7","29.80","340","12.1","25.3","0.72","0.00","541"
"14:34:59","46.8","29.5","50.6","29.80","333","11.8","25.3","0.72","0.00","520"
"14:39:56","46.3","28.7","50","29.80","324","10.8","25.3","0.72","0.00","504"
"14:44:57","45.9","28.5","50.4","29.81","327","10.7","23","0.72","0.00","362"
"14:49:58","45.9","29","51.3","29.81","334","8.3","18.4","0.72","0.00","183"
"14:54:58","45.8","28.7","50.9","29.81","334","9.4","25.3","0.72","0.00","455"
"14:59:59","46.4","28.9","50.2","29.81","341","9.4","26.5","0.72","0.00","455"
"15:04:55","45.9","27.4","48.3","29.81","335","13.4","27.6","0.72","0.00","420"
"15:09:59","44.8","26.6","48.5","29.81","338","11.8","27.6","0.72","0.00","105"
"15:14:59","44.4","26.7","49.7","29.83","330","8.9","23","0.72","0.00","118"
"15:19:57","44.3","26.7","49.8","29.83","331","9.5","19.6","0.72","0.00","135"
"15:24:58","44.4","27.2","50.4","29.83","339","8.5","22.8","0.72","0.00","127"
"15:29:59","44.4","27.8","51.7","29.83","346","6.3","15.6","0.72","0.00","114"
"15:34:56","44.4","27.7","51.5","29.83","331","6.4","16.1","0.72","0.00","95"
"15:39:58","44.3","27.6","51.5","29.83","341","5.4","15","0.72","0.00","86"
"15:44:59","44.3","27.8","52.2","29.84","338","5.8","20.4","0.72","0.00","102"
"15:49:56","44.3","28","52.6","29.84","332","5","12","0.72","0.00","104"
"15:54:57","44.3","27.9","52.1","29.84","319","5.3","12","0.72","0.00","93"
"15:59:58","44.6","28.5","53","29.84","341","4.6","10.8","0.72","0.00","272"
"16:04:59","45.1","28.6","52.2","29.84","320","4.7","13.2","0.72","0.00","178"
"16:09:58","45.6","28.4","50.7","29.84","277","4","8.4","0.72","0.00","246"
"16:14:59","45.7","28","49.9","29.85","280","4.2","14.4","0.72","0.00","243"
"16:19:56","45.3","28.1","50.7","29.85","319","6.6","15","0.72","0.00","176"
"16:24:57","45.1","28.3","51.4","29.85","304","4.2","8.4","0.72","0.00","91"
"16:29:58","45","28.9","53","29.85","311","3.1","13.2","0.72","0.00","90"
"16:34:59","44.8","28.5","52.5","29.85","296","4.3","12.7","0.72","0.00","72"
"16:39:56","44.6","28.7","53.3","29.85","324","4.9","14.4","0.72","0.00","67"
"16:44:57","44.5","28.3","52.7","29.85","314","3.8","15","0.72","0.00","116"
"16:49:58","44.5","28.5","53.2","29.85","327","4.1","8.4","0.72","0.00","63"
"16:54:59","44.3","28","52.6","29.85","333","6","18.4","0.72","0.00","65"
"16:59:59","44.1","28.2","53.3","29.86","288","3.7","9.6","0.72","0.00","37"
"17:04:57","43.9","28.2","53.8","29.86","307","2.7","7.2","0.72","0.00","33"
"17:09:56","43.8","28.4","54.4","29.86","279","2.7","6","0.72","0.00","28"
"17:14:57","43.6","28.6","55.1","29.87","304","1.6","3.6","0.72","0.00","25"
"17:19:59","43.6","28.7","55.5","29.87","329","1.9","4.8","0.72","0.00","14"
"17:24:57","43.6","28.5","55.2","29.87","326","2.7","4.8","0.72","0.00","12"
"17:29:58","43.6","28.1","54.2","29.88","300","3.5","7.2","0.72","0.00","11"
"17:34:56","43.7","28.4","54.5","29.88","343","2.8","9.6","0.72","0.00","9"
"17:39:57","43.7","28.3","54.4","29.88","316","2.1","9.2","0.72","0.00","7"
"17:44:59","43.6","28.7","55.3","29.88","351","1","6","0.72","0.00","5"
"17:49:59","43.5","28.5","55.2","29.88","323","2.6","13.2","0.72","0.00","0"
"17:54:57","43.3","28.7","56.2","29.88","311","0.5","3.6","0.72","0.00","0"
"17:59:58","43.1","28","54.9","29.89","310","1.3","3.6","0.72","0.00","0"
"18:04:59","43","27.5","54.2","29.89","312","2.8","8.4","0.72","0.00","0"
"18:09:59","42.8","27.7","54.9","29.89","350","0.9","5.8","0.72","0.00","0"
"18:14:57","42.5","27.3","54.8","29.90","349","0.4","3.6","0.72","0.00","0"
"18:19:59","42.3","27.1","54.7","29.90","347","0.9","3.6","0.72","0.00","0"
"18:24:56","42.1","27","54.9","29.90","342","1","8.4","0.72","0.00","0"
"18:29:58","42","26.8","54.7","29.91","270","1.9","8.1","0.72","0.00","0"
"18:34:59","41.8","26.9","55.2","29.91","301","1.1","4.8","0.72","0.00","0"
"18:39:57","41.7","26.6","54.7","29.91","285","1.8","6","0.72","0.00","0"
"18:44:59","41.7","26.6","54.9","29.91","256","2","4.8","0.72","0.00","0"
"18:49:57","41.6","26.6","55","29.91","300","1.5","3.5","0.72","0.00","0"
"18:54:59","41.6","26.6","55","29.91","292","1","4.8","0.72","0.00","0"
"18:59:57","41.6","26.5","54.7","29.92","271","0.9","4.6","0.72","0.00","0"
"19:04:58","41.8","26.6","54.5","29.92","274","1","3.6","0.72","0.00","0"
"19:09:59","41.8","26.4","54.1","29.92","274","0.2","2.3","0.72","0.00","0"
"19:14:57","41.8","26.7","54.6","29.92","274","0.2","1.2","0.72","0.00","0"
"19:19:59","41.7","26.7","54.8","29.92","274","0.1","2.4","0.72","0.00","0"
"19:24:56","41.6","27","55.9","29.92","300","1.1","4.8","0.72","0.00","0"
"19:29:59","41.4","26.9","56","29.93","311","0","0","0.72","0.00","0"
"19:34:56","41.2","27.5","57.9","29.93","311","0","0","0.72","0.00","0"
"19:39:59","40.7","27.8","59.8","29.93","311","0","0","0.72","0.00","0"
"19:44:56","40.3","27.9","61.1","29.93","311","0","0","0.72","0.00","0"
"19:49:58","39.9","27.9","62","29.93","311","0","0","0.72","0.00","0"
"19:54:56","39.4","28","63.4","29.93","311","0","0","0.72","0.00","0"
"19:59:58","39","28","64.3","29.94","311","0","0","0.72","0.00","0"
"20:04:56","38.6","27.6","64.4","29.94","311","0","0","0.72","0.00","0"
"20:09:56","38.3","27.9","65.8","29.94","311","0","0","0.72","0.00","0"
"20:14:58","37.9","28.5","68.5","29.94","311","0","0","0.72","0.00","0"
"20:19:56","37.6","28.7","70.1","29.94","311","0","0","0.72","0.00","0"
"20:24:58","37.2","29","71.8","29.94","311","0","0","0.72","0.00","0"
"20:29:56","36.9","28.6","71.8","29.94","311","0","0","0.72","0.00","0"
"20:34:58","36.6","28.4","72","29.94","311","0","0","0.72","0.00","0"
"20:39:56","36.3","28.1","72","29.94","311","0","0","0.72","0.00","0"
"20:44:58","36.1","27.9","72","29.94","311","0","0","0.72","0.00","0"
"20:49:56","35.7","27.7","72.3","29.94","311","0","0","0.72","0.00","0"
"20:54:57","35.4","27.9","74.1","29.94","311","0","0","0.72","0.00","0"
"20:59:59","35.1","28","75.1","29.94","311","0","0","0.72","0.00","0"
"21:04:56","34.9","28.1","76","29.94","311","0","0","0.72","0.00","0"
"21:09:57","34.7","28","76.2","29.94","311","0","0","0.72","0.00","0"
"21:14:59","34.6","28.1","77","29.95","311","0","0","0.72","0.00","0"
"21:19:57","34.6","28.2","77.3","29.95","311","0","0","0.72","0.00","0"
"21:24:59","34.7","28.6","78.2","29.95","311","0","0","0.72","0.00","0"
"21:29:57","34.8","29.1","79.3","29.95","311","0","0","0.72","0.00","0"
"21:34:59","34.9","29.4","80","29.95","311","0","0","0.72","0.00","0"
"21:39:57","34.9","29.4","80","29.95","311","0","0","0.72","0.00","0"
"21:44:59","34.9","29.4","80","29.95","311","0","0","0.72","0.00","0"
"21:49:57","35","29.5","80","29.95","311","0","0","0.72","0.00","0"
"21:54:59","35","29.8","81","29.95","311","0","0","0.72","0.00","0"
"21:59:57","35.1","29.9","81","29.95","311","0","0","0.72","0.00","0"
"22:04:58","35.3","29.9","80.6","29.95","311","0","0","0.72","0.00","0"
"22:09:59","35.5","29.9","80","29.95","311","0","0","0.72","0.00","0"
"22:14:56","35.6","30","80","29.95","311","0","0","0.72","0.00","0"
"22:19:58","35.7","29.9","79.3","29.95","311","0","0","0.72","0.00","0"
"22:24:56","35.8","30.1","79.7","29.95","311","0","0","0.72","0.00","0"
"22:29:58","35.8","30.2","80.1","29.96","311","0","0","0.72","0.00","0"
"22:34:56","35.8","30.2","80","29.96","311","0","0","0.72","0.00","0"
"22:39:58","35.8","30.2","80","29.96","311","0","0","0.72","0.00","0"
"22:44:56","35.8","30.3","80.3","29.97","307","0","1.2","0.72","0.00","0"
"22:49:58","35.9","30.9","82","29.97","307","0.5","2.4","0.72","0.00","0"
"22:54:59","35.9","30.7","81.5","29.97","307","0.2","1.2","0.72","0.00","0"
"22:59:58","36","30.6","80.8","29.97","307","0.5","2.4","0.72","0.00","0"
"23:04:59","36.3","30.2","78.5","29.97","349","1.5","4.8","0.72","0.00","0"
"23:09:59","36.8","30.1","76.7","29.97","342","2.3","6","0.72","0.00","0"
"23:14:59","37.6","29.2","71.4","29.98","344","3.1","7.2","0.72","0.00","0"
"23:19:56","38.6","29.1","68.4","29.98","340","2.7","8.4","0.72","0.00","0"
"23:24:59","39.3","29.1","66.6","29.98","341","2.1","8.1","0.72","0.00","0"
"23:29:57","39.6","29.4","66.6","29.98","333","1.7","3.6","0.72","0.00","0"
"23:34:59","39.7","29.1","65.5","29.98","334","1.4","3.6","0.72","0.00","0"
"23:39:57","39.7","29.5","66.7","29.98","334","0","0","0.72","0.00","0"
"23:44:59","39.6","29.4","66.7","29.98","333","0.3","3.6","0.72","0.00","0"
"23:49:56","39.4","28.9","65.6","29.98","328","2.3","8.4","0.72","0.00","0"
